Flag for Japan Weather past 2 weeks in Nagoya, Japan

Now
73 °F

Sprinkles. Broken clouds.


Feels Like: 72 °F
Forecast: 64 / 78 °F
Wind: 18 mph from Southeast

Location: Nagoya Airport

Current Time: Oct 2, 2014 at 5:27:08 PM

Latest Report: Oct 2, 2014 at 5:00 PM


Visibility: N/A

Pressure: 29.83 "Hg

Humidity: 89%

Dew point: 70 °F

Location of NagoyaLocation

Historic Weather in Nagoya — Graph

°F

Nagoya temperature yesterday

Maximum temperature yesterday: 81 °F (at 1:30 PM)
Minimum temperature yesterday: 70 °F (at 2:30 AM)
Average temperature yesterday: 74 °F

Past Weeks' High & Low Weather Summary

 TemperatureHumidityPressure
High84 °F (Sep 25, 12:30 PM)100% (Sep 24, 12:30 PM)30.15 "Hg (Sep 24, 12:30 PM)
Low63 °F (Sep 21, 2:30 AM)45% (Sep 18, 2:30 PM)29.59 "Hg (Sep 25, 12:00 PM)
Average73 °F74%29.91 "Hg
* Reported Sep 17 4:00 PM — Oct 2 4:30 PM, Nagoya, Weather by CustomWeather, © 2014

Note: Actual official high and low records may vary slightly from our data, if they occured in-between our weather recording intervals... More about our weather records

Advertising

Nagoya weather history for previous 24 hours

 ConditionsComfort  
Time TempWeatherWind HumidityBarometerVisibility
4:30 PM
Oct 2
73 °FSprinkles. Broken clouds.17 mph89%29.83 "Hg6 mi
4:00 PM73 °FSprinkles. Broken clouds.20 mph83%29.83 "HgN/A
3:30 PM73 °FScattered showers. Partly sunny.18 mph89%29.83 "HgN/A
3:00 PM73 °FScattered showers. Broken clouds.16 mph89%29.83 "Hg5 mi
2:30 PM72 °FSprinkles. Broken clouds.21 mph94%29.83 "Hg4 mi
2:00 PM73 °FSprinkles. Broken clouds.18 mph83%29.86 "Hg6 mi
1:30 PM75 °FBroken clouds.21 mph78%29.86 "HgN/A
1:00 PM75 °FBroken clouds.17 mph78%29.86 "HgN/A
12:30 PM73 °FScattered showers. Partly sunny.15 mph83%29.89 "HgN/A
12:00 PM75 °FPartly sunny.15 mph78%29.89 "HgN/A
11:30 AM75 °FPartly sunny.15 mph78%29.92 "HgN/A
11:00 AM73 °FPartly sunny.14 mph83%29.92 "Hg6 mi
10:30 AM75 °FPartly sunny.14 mph78%29.95 "HgN/A
10:00 AM77 °FBroken clouds.13 mph74%29.95 "HgN/A
9:30 AM75 °FScattered clouds.12 mph78%29.95 "HgN/A
9:00 AM75 °FPassing clouds.13 mph83%29.95 "HgN/A
8:30 AM75 °FScattered clouds.13 mph83%29.95 "HgN/A
8:00 AM73 °FPartly sunny.13 mph83%29.98 "Hg5 mi
7:30 AM73 °FPartly sunny.12 mph83%29.95 "Hg5 mi
7:00 AM72 °FBroken clouds.7 mph88%29.95 "Hg5 mi
6:30 AM72 °FBroken clouds.8 mph88%29.95 "Hg4 mi
5:30 AM72 °FPassing clouds.6 mph88%29.95 "Hg5 mi
5:00 AM72 °FPassing clouds.6 mph88%29.95 "Hg6 mi
4:30 AM72 °FPassing clouds.8 mph88%29.95 "Hg6 mi
4:00 AM72 °FPassing clouds.9 mph88%29.95 "HgN/A
3:30 AM72 °FPassing clouds.10 mph94%29.95 "HgN/A
3:00 AM72 °FPassing clouds.8 mph88%29.95 "HgN/A
2:30 AM72 °FPassing clouds.8 mph88%29.98 "HgN/A
2:00 AM72 °FPassing clouds.6 mph88%29.98 "HgN/A
1:30 AM72 °FPassing clouds.9 mph88%29.98 "HgN/A
1:00 AM72 °FPassing clouds.8 mph88%29.98 "HgN/A
12:30 AM72 °FPassing clouds.10 mph88%29.98 "HgN/A
12:00 AM72 °FPassing clouds.12 mph94%30.01 "HgN/A
11:30 PM
Oct 1
72 °FPassing clouds.10 mph88%30.01 "HgN/A
11:00 PM72 °FPassing clouds.12 mph94%30.01 "HgN/A
10:30 PM72 °FPassing clouds.12 mph94%30.01 "HgN/A
10:00 PM73 °FPassing clouds.12 mph83%30.01 "HgN/A
9:30 PM73 °FPassing clouds.9 mph83%30.01 "HgN/A
9:00 PM73 °FPassing clouds.8 mph83%30.01 "HgN/A
8:30 PM73 °FPassing clouds.12 mph83%29.98 "HgN/A
8:00 PM73 °FPassing clouds.12 mph83%29.98 "HgN/A
7:30 PM73 °FPassing clouds.9 mph83%29.98 "HgN/A
7:00 PM73 °FPassing clouds.10 mph83%29.98 "HgN/A
6:30 PM75 °FPassing clouds.13 mph74%29.95 "HgN/A
6:00 PM75 °FPassing clouds.13 mph69%29.95 "HgN/A
5:30 PM77 °FPartly sunny.12 mph65%29.95 "HgN/A
5:00 PM77 °FPartly sunny.13 mph74%29.95 "HgN/A
Weather by CustomWeather, © 2014

See weather overviewHow to use our weather pages